Regional Weather Roundup
Issued by NWS

Home | Current Version | Previous Version | Text Only | Print | Product List | Glossary Off
Versions: 1 2 3 4 5 6 7 8 9 10 11 12 13 14 15 16 17 18 19 20 21 22 23 24 25 26 27 28 29 30 31 32 33 34 35 36 37 38 39 40 41 42 43 44 45 46 47 48 49 50

000
ASUS45 KSLC 242110
RWRUT

UTAH REGIONAL WEATHER ROUNDUP
NATIONAL WEATHER SERVICE SALT LAKE CITY UT
300 PM MDT FRI APR 24 2015

UTZ001>011-023>025-242200-

NORTHERN UTAH

CITY           SKY/WX    TMP DP  RH WIND       PRES   REMARKS
BRIGHAM CITY   PTSUNNY   64  31  28 S9G17     29.66F
HILL AFB       PTSUNNY   64  32  29 W13       29.66F
LOGAN          PTSUNNY   62  33  33 SW12      29.66S
OGDEN          PTSUNNY   64  32  30 CALM      29.65F
PROVO AIRPORT  PTSUNNY   66  36  32 SE16G28   29.68F
SALT LAKE CITY PTSUNNY   65  34  31 SE15      29.64F
VERNAL         LGT RAIN  56  32  40 NW20G29   29.71R
WENDOVER       CLOUDY    64  28  25 SW20      29.66F
HEBER CITY     PTSUNNY   59  32  36 W14       29.72F
WEST JORDAN    CLOUDY    64  36  34 SE13      29.66F

$$

UTZ012>022-026-027-242200-

SOUTHERN/CENTRAL UTAH

CITY           SKY/WX    TMP DP  RH WIND       PRES   REMARKS
BLANDING       CLOUDY    60  25  26 N7        29.88S
BRYCE CANYON   PTSUNNY   54  24  31 SW15G22   29.87F
CEDAR CITY     PTSUNNY   63  27  25 SW23G32   29.80F
DELTA          PTSUNNY   59  34  39 S21G48    29.74R
HANKSVILLE     MOSUNNY   72  21  15 SW18G26   29.72S
MILFORD        CLOUDY    58  31  35 S21G29    29.78F
MOAB/CYNLANDS  MOSUNNY   71  17  12 SW12G29   29.67F
PRICE          CLOUDY    62  21  20 W12       29.72F
ST GEORGE      MOCLDY    73  34  23 SW23G29   29.77F
KANAB          PTSUNNY   59  34  38 S10       29.88F

$$

REGIONAL REPORTS     COLORADO/ARIZONA

CITY           SKY/WX    TMP DP  RH WIND       PRES   REMARKS
CRAIG, CO      PTSUNNY   55  30  38 SW23G29   29.74R
GRAND JUNCTION CLOUDY    62  29  28 S13       29.71F
RIFLE          CLOUDY    51  32  48 N13G24    29.81R
MONTROSE       PTSUNNY   53  30  41 SW23G35   29.80S
CORTEZ         CLOUDY    60  23  24 W15G24    29.82F
PAGE, AZ       CLOUDY    66  27  23 VRB5G17   29.79F
GRAND CANYON   PTSUNNY   54  36  50 S16G28    29.94F
KINGMAN        MOSUNNY   70  35  27 SW28G38   29.88F
FLAGSTAFF      LGT RAIN  42  41  96 S13       29.99S FOG

$$

REGIONAL REPORTS    NEVADA/IDAHO/WYOMING

CITY           SKY/WX    TMP DP  RH WIND       PRES   REMARKS
LAS VEGAS, NV  MOSUNNY   76  37  24 SW21G36   29.71F
ELY            CLOUDY    48  38  68 MISG      29.80S
ELKO           LGT RAIN  49  43  80 SW8       29.75S
POCATELLO, ID  PTSUNNY   53  39  59 W22       29.71R
BURLEY         CLOUDY    47  37  68 W16G28    29.72S
EVANSTON, WY   PTSUNNY   57  30  35 W18G28    29.72F
ROCK SPRINGS   LGT RAIN  43  36  76 W24       29.78R
KEMMERER       LGT RAIN  39  36  87 E3        29.75F

$$


USA.gov is the U.S. government's official web portal to all federal, state and local government web resources and services.